User: anonymous   Login
Location: Unspecified
(0.0000°N, 0.0000°E)
Time: 05:31:14
(UTC+00:00)
Language:

ADEOS II - Orbit

View from above orbital plane
View from above orbital plane
View from above satellite
View from above satellite

Ground track
Ground track

The orbit data is extracted from the following two-line orbital elements,

1 27597U 02056A   17177.72613242 +.00000025 +00000-0 +27271-4 0  9993
2 27597 098.3698 146.8824 0000784 036.8497 323.2739 14.27290718756787
Epoch (UTC): 26 June 2017 17:25:37
Eccentricity: 0.0000784
inclination: 98.3698°
perigee height: 800 km
apogee height: 801 km
right ascension of ascending node: 146.8824°
argument of perigee: 36.8497°
revolutions per day: 14.27290718
mean anomaly at epoch: 323.2739°
orbit number at epoch: 75678

The dashed part of the orbit path shows where the satellite is in the earth's shadow,  

DLR